Weather History for KLWT - November, 2012

Change the Weather History Date:

Friday, November 2, 2012

  Actual Average Record
Temperature  
Mean Temperature 41 °F 38 °F  
Max Temperature 50 °F 50 °F 75 °F (1903)
Min Temperature 31 °F 26 °F -10 °F (1935)
Degree Days  
Heating Degree Days 24 27  
Month to date heating degree days 44 54  
Since 1 July heating degree days 1066 1192  
Cooling Degree Days 0 0  
Month to date cooling degree days 0 0  
Year to date cooling degree days 314 210  
Moisture  
Dew Point 34 °F    
Average Humidity 74    
Maximum Humidity 92    
Minimum Humidity 56    
Precipitation  
Precipitation 0.00 in 0.03 in 0.45 in (1922)
Month to date precipitation 0.15 0.05  
Year to date precipitation 14.54 15.53  
Snow  
Snow 0.00 in - - ()
Snow Depth 0.00 in    
Sea Level Pressure  
Sea Level Pressure 30.06 in    
Wind  
Wind Speed 7 mph (WSW)    
Max Wind Speed 15 mph    
Max Gust Speed 20 mph    
Visibility 10 miles    
Events      
T = Trace of Precipitation, MM = Missing Value Source: NWS Daily Summary

Daily Weather History Graph

Daily Weather History Graph

Search for Another Location

Airport or City:

Trip Planner

Search our weather history database for the weather conditions in past years. The results will help you decide how hot, cold, wet, or windy it might be!

Date:

Astronomy

Nov. 02, 2012 Rise Set
Actual Time 8:02 AM MDT 5:59 PM MDT
Civil Twilight 7:30 AM MDT 6:31 PM MDT
Nautical Twilight 6:54 AM MDT 7:07 PM MDT
Astronomical Twilight 6:19 AM MDT 7:42 PM MDT
Moon 8:41 PM MDT (11/2) 11:34 AM MDT (11/2)
Length of Visible Light 11h 00m
Length of Day
9h 56m
Waning Gibbous, 87% of the Moon is Illuminated
Nov 2
Waning Gibbous
Nov 6
Last Quarter
Nov 13
New
Nov 20
First Quarter
Nov 28
Full

Hourly Weather History & Observations

Time (MDT) Temp. Windchill Dew Point Humidity Pressure Visibility Wind Dir Wind Speed Gust Speed Precip Events Conditions
12:54 AM 39.9 °F 36.7 °F 37.9 °F 93% 29.92 in 10.0 mi SW 4.6 mph - N/A   Overcast
1:54 AM 41.0 °F 35.8 °F 37.9 °F 89% 29.92 in 10.0 mi SW 8.1 mph - N/A   Overcast
2:54 AM 39.9 °F 36.7 °F 34.0 °F 79% 29.94 in 10.0 mi WNW 4.6 mph - N/A   Overcast
3:54 AM 39.0 °F 35.7 °F 35.1 °F 86% 29.94 in 10.0 mi West 4.6 mph - N/A   Overcast
4:54 AM 37.9 °F 31.5 °F 34.0 °F 86% 29.96 in 10.0 mi SW 9.2 mph - N/A   Mostly Cloudy
5:54 AM 37.0 °F 29.3 °F 32.0 °F 82% 29.98 in 10.0 mi WSW 11.5 mph - N/A   Clear
6:54 AM 34.0 °F 28.0 °F 30.9 °F 89% 30.01 in 10.0 mi WSW 6.9 mph - N/A   Scattered Clouds
7:54 AM 36.0 °F 33.3 °F 30.9 °F 82% 30.04 in 10.0 mi WNW 3.5 mph - N/A   Overcast
8:54 AM 37.9 °F 33.5 °F 33.1 °F 83% 30.07 in 10.0 mi WNW 5.8 mph - N/A   Overcast
9:54 AM 37.9 °F 31.5 °F 34.0 °F 86% 30.09 in 10.0 mi West 9.2 mph - N/A   Overcast
10:54 AM 41.0 °F 34.7 °F 36.0 °F 82% 30.10 in 10.0 mi WSW 10.4 mph - N/A   Overcast
11:54 AM 45.0 °F 38.9 °F 36.0 °F 71% 30.10 in 10.0 mi West 12.7 mph - N/A   Overcast
12:54 PM 45.0 °F 40.6 °F 36.0 °F 71% 30.10 in 10.0 mi West 8.1 mph - N/A   Overcast
1:54 PM 46.9 °F - 35.1 °F 63% 30.09 in 10.0 mi WNW 10.4 mph - N/A   Overcast
2:54 PM 48.9 °F - 34.0 °F 56% 30.08 in 10.0 mi NW 9.2 mph - N/A   Scattered Clouds
3:54 PM 48.9 °F - 35.1 °F 59% 30.09 in 10.0 mi WNW 8.1 mph - N/A   Clear
4:54 PM 48.0 °F - 33.1 °F 56% 30.09 in 10.0 mi WNW 3.5 mph - N/A   Overcast
5:54 PM 44.1 °F - 35.1 °F 71% 30.12 in 10.0 mi Calm Calm - N/A   Mostly Cloudy
6:54 PM 43.0 °F 40.3 °F 36.0 °F 76% 30.14 in 10.0 mi South 4.6 mph - N/A   Overcast
7:54 PM 42.1 °F 40.2 °F 36.0 °F 79% 30.15 in 10.0 mi South 3.5 mph - N/A   Overcast
8:54 PM 41.0 °F 39.0 °F 36.0 °F 82% 30.14 in 10.0 mi SE 3.5 mph - N/A   Overcast
9:54 PM 39.0 °F 36.8 °F 34.0 °F 82% 30.15 in 10.0 mi SE 3.5 mph - N/A   Overcast
10:54 PM 36.0 °F 29.6 °F 30.9 °F 82% 30.15 in 10.0 mi SW 8.1 mph - N/A   Clear
11:54 PM 32.0 °F 27.5 °F 28.9 °F 88% 30.14 in 10.0 mi South 4.6 mph - N/A   Clear